, AK

(GMT )
Golovin

Weather History for PAGL - February, 2014

Change the Weather History Date:

Sunday, February 2, 2014

  Actual Average Record
Temperature  
Mean Temperature 20 °F -  
Max Temperature 28 °F - - ()
Min Temperature 12 °F - - ()
Degree Days  
Heating Degree Days 45    
Moisture  
Dew Point 15 °F    
Average Humidity 86    
Maximum Humidity 100    
Minimum Humidity 69    
Precipitation  
Precipitation 0.05 in - - ()
Sea Level Pressure  
Sea Level Pressure 30.69 in    
Wind  
Wind Speed 6 mph (NW)    
Max Wind Speed 22 mph    
Max Gust Speed 29 mph    
Visibility 9 miles    
Events      
T = Trace of Precipitation, MM = Missing Value Source: NWS Daily Summary

Daily Weather History Graph

Daily Weather History Graph

Search for Another Location

Airport or City:

Trip Planner

Search our weather history database for the weather conditions in past years. The results will help you decide how hot, cold, wet, or windy it might be!

Date:

Astronomy

Feb. 02, 2014 Rise Set
Actual Time 10:31 AM AKST 5:41 PM AKST
Civil Twilight 9:34 AM AKST 6:38 PM AKST
Nautical Twilight 8:34 AM AKST 7:38 PM AKST
Astronomical Twilight 7:38 AM AKST 8:35 PM AKST
Moon 10:31 AM AKST (2/2) 11:26 PM AKST (2/2)
Length of Visible Light 9h 04m
Length of Day
7h 09m
Waxing Crescent, 12% of the Moon is Illuminated
Feb 2
Waxing Crescent
Feb 6
First Quarter
Feb 14
Full
Feb 22
Last Quarter
Feb 28
New

Hourly Weather History & Observations

Time (AKST) Temp. Windchill Dew Point Humidity Pressure Visibility Wind Dir Wind Speed Gust Speed Precip Events Conditions
12:16 AM 21.2 °F 13.6 °F 19.4 °F 93% 30.72 in 10.0 mi WNW 5.8 mph - N/A   Overcast
12:36 AM 21.2 °F 10.9 °F 17.6 °F 86% 30.73 in 10.0 mi WNW 9.2 mph - N/A   Overcast
12:56 AM 21.2 °F 10.9 °F 17.6 °F 86% 30.74 in 10.0 mi WNW 9.2 mph - 0.05 in   Overcast
1:16 AM 21.2 °F 10.9 °F 19.4 °F 93% 30.75 in 10.0 mi NW 9.2 mph - N/A   Overcast
1:36 AM 21.2 °F 12.6 °F 17.6 °F 86% 30.76 in 10.0 mi NNW 6.9 mph - N/A   Overcast
1:56 AM 21.2 °F 13.6 °F 19.4 °F 93% 30.76 in 10.0 mi NW 5.8 mph - N/A   Overcast
2:16 AM 23.0 °F 15.8 °F 19.4 °F 86% 30.76 in 10.0 mi WNW 5.8 mph - N/A   Overcast
2:36 AM 21.2 °F 13.6 °F 19.4 °F 93% 30.76 in 10.0 mi WNW 5.8 mph - N/A   Overcast
2:56 AM 21.2 °F 13.6 °F 19.4 °F 93% 30.76 in 10.0 mi WNW 5.8 mph - N/A   Overcast
3:16 AM 23.0 °F 14.7 °F 19.4 °F 86% 30.75 in 10.0 mi WNW 6.9 mph - N/A   Overcast
3:36 AM 19.4 °F 10.4 °F 17.6 °F 93% 30.75 in 10.0 mi WNW 6.9 mph - N/A   Overcast
3:56 AM 19.4 °F 10.4 °F 15.8 °F 86% 30.75 in 10.0 mi WNW 6.9 mph - N/A   Overcast
4:16 AM 17.6 °F 7.3 °F 14.0 °F 86% 30.75 in 10.0 mi WNW 8.1 mph - N/A   Overcast
4:36 AM 15.8 °F 5.1 °F 12.2 °F 86% 30.75 in 10.0 mi WNW 8.1 mph - N/A   Mostly Cloudy
4:56 AM 15.8 °F 4.2 °F 12.2 °F 86% 30.74 in 10.0 mi NW 9.2 mph - N/A   Partly Cloudy
5:16 AM 15.8 °F 6.1 °F 12.2 °F 86% 30.74 in 10.0 mi WNW 6.9 mph - N/A   Clear
5:36 AM 14.0 °F 3.9 °F 10.4 °F 86% 30.75 in 10.0 mi WNW 6.9 mph - N/A   Clear
5:56 AM 14.0 °F 2.0 °F 10.4 °F 86% 30.75 in 10.0 mi WNW 9.2 mph - N/A   Clear
6:16 AM 14.0 °F 3.9 °F 12.2 °F 93% 30.75 in 10.0 mi NW 6.9 mph - N/A   Clear
6:36 AM 15.8 °F 6.1 °F 12.2 °F 86% 30.75 in 10.0 mi NW 6.9 mph - N/A   Clear
6:56 AM 15.8 °F 6.1 °F 15.8 °F 100% 30.75 in 10.0 mi NW 6.9 mph - N/A   Clear
7:16 AM 15.8 °F 8.6 °F 15.8 °F 100% 30.75 in 10.0 mi NW 4.6 mph - N/A   Clear
7:36 AM 15.8 °F 8.6 °F 15.8 °F 100% 30.75 in 10.0 mi NNW 4.6 mph - N/A   Scattered Clouds
7:56 AM 15.8 °F 8.6 °F 15.8 °F 100% 30.75 in 10.0 mi North 4.6 mph - N/A   Overcast
8:16 AM 17.6 °F 10.7 °F 17.6 °F 100% 30.75 in 1.5 mi North 4.6 mph - N/A   Overcast
8:36 AM 17.6 °F 12.3 °F 15.8 °F 93% 30.74 in 0.8 mi NNW 3.5 mph - N/A   Overcast
8:56 AM 17.6 °F 9.3 °F 17.6 °F 100% 30.74 in 2.5 mi NNW 5.8 mph - N/A   Overcast
9:16 AM 15.8 °F 4.2 °F 15.8 °F 100% 30.76 in 0.5 mi NW 9.2 mph - N/A   Overcast
9:36 AM 15.8 °F 7.2 °F 12.2 °F 86% 30.75 in 0.8 mi NW 5.8 mph - N/A   Overcast
9:56 AM 14.0 °F 5.1 °F 12.2 °F 93% 30.75 in 10.0 mi NNE 5.8 mph - N/A   Partly Cloudy
10:16 AM 14.0 °F 5.1 °F 10.4 °F 86% 30.75 in 10.0 mi NW 5.8 mph - N/A   Clear
10:36 AM 14.0 °F 5.1 °F 14.0 °F 100% 30.74 in 10.0 mi NW 5.8 mph - N/A   Mostly Cloudy
10:56 AM 14.0 °F 3.9 °F 12.2 °F 93% 30.74 in 10.0 mi WNW 6.9 mph - N/A   Partly Cloudy
11:16 AM 12.2 °F 1.7 °F 10.4 °F 92% 30.74 in 10.0 mi NW 6.9 mph - N/A   Clear
11:36 AM 12.2 °F - 10.4 °F 92% 30.74 in 10.0 mi Calm Calm - N/A   Clear
11:56 AM 14.0 °F 6.5 °F 12.2 °F 93% 30.74 in 10.0 mi West 4.6 mph - N/A   Clear
12:16 PM 12.2 °F 1.7 °F 10.4 °F 92% 30.73 in 10.0 mi NW 6.9 mph - N/A   Clear
12:36 PM 12.2 °F 1.7 °F 10.4 °F 92% 30.73 in 10.0 mi WNW 6.9 mph - N/A   Clear
12:56 PM 12.2 °F 1.7 °F 10.4 °F 92% 30.73 in 10.0 mi NW 6.9 mph - N/A   Clear
1:16 PM 12.2 °F 0.7 °F 10.4 °F 92% 30.73 in 10.0 mi NW 8.1 mph - N/A   Clear
1:36 PM 12.2 °F 0.7 °F 10.4 °F 92% 30.71 in 10.0 mi WNW 8.1 mph - N/A   Clear
1:56 PM 12.2 °F 2.9 °F 10.4 °F 92% 30.71 in 10.0 mi WNW 5.8 mph - N/A   Clear
2:16 PM 12.2 °F 6.1 °F 12.2 °F 100% 30.71 in 10.0 mi WNW 3.5 mph - N/A   Clear
2:36 PM 12.2 °F - 10.4 °F 92% 30.70 in 10.0 mi Calm Calm - N/A   Clear
2:56 PM 12.2 °F 2.9 °F 10.4 °F 92% 30.69 in 10.0 mi WNW 5.8 mph - N/A   Clear
3:16 PM 14.0 °F 2.9 °F 10.4 °F 86% 30.68 in 10.0 mi NW 8.1 mph - N/A   Clear
3:36 PM 14.0 °F 1.2 °F 10.4 °F 86% 30.67 in 10.0 mi NW 10.4 mph - N/A   Clear
3:56 PM 15.8 °F 5.1 °F 12.2 °F 86% 30.67 in 10.0 mi NW 8.1 mph - N/A   Clear
4:16 PM 15.8 °F 5.1 °F 12.2 °F 86% 30.66 in 10.0 mi WNW 8.1 mph - N/A   Clear
4:36 PM 15.8 °F - 12.2 °F 86% 30.66 in 10.0 mi Calm Calm - N/A   Clear
4:56 PM 15.8 °F 10.2 °F 10.4 °F 79% 30.66 in 10.0 mi West 3.5 mph - N/A   Clear
5:16 PM 17.6 °F 8.2 °F 12.2 °F 79% 30.66 in 10.0 mi West 6.9 mph - N/A   Clear
5:36 PM 15.8 °F 5.1 °F 10.4 °F 79% 30.65 in 10.0 mi WNW 8.1 mph - N/A   Clear
5:56 PM 17.6 °F 9.3 °F 12.2 °F 79% 30.65 in 10.0 mi WNW 5.8 mph - N/A   Clear
6:16 PM 19.4 °F 12.8 °F 14.0 °F 80% 30.64 in 10.0 mi WNW 4.6 mph - N/A   Clear
6:36 PM 19.4 °F - 12.2 °F 74% 30.63 in 10.0 mi Calm Calm - N/A   Clear
6:56 PM 19.4 °F 14.3 °F 12.2 °F 74% 30.62 in 10.0 mi West 3.5 mph - N/A   Clear
7:16 PM 19.4 °F 14.3 °F 12.2 °F 74% 30.61 in 10.0 mi WNW 3.5 mph - N/A   Scattered Clouds
7:36 PM 21.2 °F 16.4 °F 15.8 °F 80% 30.62 in 10.0 mi SW 3.5 mph - N/A   Scattered Clouds
7:56 PM 24.8 °F 20.5 °F 17.6 °F 74% 30.61 in 10.0 mi NNE 3.5 mph - N/A   Scattered Clouds
8:16 PM 24.8 °F 17.9 °F 17.6 °F 74% 30.60 in 10.0 mi NW 5.8 mph - N/A   Partly Cloudy
8:36 PM 26.6 °F 21.2 °F 19.4 °F 74% 30.60 in 10.0 mi NW 4.6 mph - N/A   Clear
8:56 PM 26.6 °F 22.6 °F 19.4 °F 74% 30.59 in 10.0 mi NNW 3.5 mph - N/A   Clear
9:16 PM 28.4 °F 23.3 °F 21.2 °F 74% 30.59 in 10.0 mi NNW 4.6 mph - N/A   Clear
9:36 PM 28.4 °F - 19.4 °F 69% 30.58 in 10.0 mi Calm Calm - N/A   Clear
9:56 PM 26.6 °F - 19.4 °F 74% 30.57 in 10.0 mi Calm Calm - N/A   Clear
10:16 PM 28.4 °F - 19.4 °F 69% 30.57 in 10.0 mi Calm Calm - N/A   Clear
10:36 PM 28.4 °F 21.2 °F 21.2 °F 74% 30.56 in 10.0 mi NNE 6.9 mph - N/A   Clear
10:56 PM 28.4 °F 19.7 °F 23.0 °F 80% 30.55 in 10.0 mi NNE 9.2 mph 21.9 mph N/A   Clear
11:16 PM 28.4 °F 19.7 °F 21.2 °F 74% 30.55 in 10.0 mi North 9.2 mph 16.1 mph N/A   Clear
11:36 PM 28.4 °F 16.2 °F 21.2 °F 74% 30.55 in 10.0 mi NE 17.3 mph - N/A   Clear
11:56 PM 28.4 °F 14.7 °F 21.2 °F 74% 30.53 in 10.0 mi NE 21.9 mph 28.8 mph N/A   Clear